Regional Weather Roundup
Issued by NWS Portland, ME

Current Version | Previous Version | Graphics & Text | Print | Product List | Glossary On
Versions: 1 2 3 4 5 6 7 8 9 10 11 12 13 14 15 16 17 18 19 20 21 22 23 24 25 26 27 28 29 30 31 32 33 34 35 36 37 38 39 40 41 42 43 44 45 46 47 48 49 50
000
ASUS41 KGYX 312305
RWRGYX
WEATHER ROUNDUP FOR MAINE AND NEW HAMPSHIRE
NATIONAL WEATHER SERVICE GRAY ME
700 PM EDT FRI OCT 31 2014

MEZ002-005-006-010-012-015-018-020-021-024-026-027-029-010000-
MAINE

CITY           SKY/WX    TMP DP  RH WIND       PRES   REMARKS
PORTLAND       CLOUDY    47  34  60 CALM      30.04R
SANFORD        CLOUDY    41  32  70 CALM      30.04R
BAR HARBOR     CLOUDY    46  39  76 N5        30.05R
WISCASSET      CLOUDY    42  36  79 CALM      30.06R
ROCKLAND       CLOUDY    46  28  49 N3        30.04R
FRYEBURG       CLOUDY    40  37  89 CALM      30.03R
LEWISTONAUBURN CLOUDY    43  34  70 CALM      30.04R
AUGUSTA        CLOUDY    43  30  60 NE5       30.04F
WATERVILLE     CLOUDY    43  28  56 NE6       30.02F
BANGOR         CLOUDY    46  33  60 N9        30.06R
GREENVILLE       N/A     36  29  75 NE5       30.03R
MILLINOCKET    CLOUDY    44  34  67 N3        30.09R
HOULTON        CLOUDY    42  32  67 N3        30.08R
PRESQUE ISLE   CLOUDY    41  28  60 N7        30.08S
FRENCHVILLE    CLOUDY    36  26  67 N5        30.09R
CARIBOU        CLOUDY    40  30  67 N7        30.09S
$$

NHZ002-005-008-009-011-012-014-010000-
NEW HAMPSHIRE

CITY           SKY/WX    TMP DP  RH WIND       PRES   REMARKS
PORTSMOUTH     CLOUDY    47  34  60 E5        30.02R
ROCHESTER      CLOUDY    45  33  63 CALM      30.02R
NASHUA         CLOUDY    48  36  63 SE8       30.02R
MANCHESTER     CLOUDY    46  33  60 E7        30.01R
CONCORD        CLOUDY    42  34  73 CALM      30.01R
LACONIA        CLOUDY    43  34  70 CALM      30.00R
PLYMOUTH       CLOUDY    44  42  93 CALM      30.01R
BERLIN         CLOUDY    41  33  73 CALM      30.02R
WHITEFIELD     CLOUDY    42  37  82 CALM      30.01R
JAFFREY        CLOUDY    42  35  76 CALM      29.99R
LEBANON        CLOUDY    46  35  65 NE3       29.99S
MT WASHINGTON  FOG       19  19 100 NW10        N/A  VSB 1/16WCI   8
$$

VTZ005-007-008-010000-
VERMONT

CITY           SKY/WX    TMP DP  RH WIND       PRES   REMARKS
ST JOHNSBURY     N/A     45  29  53 MISG      30.01R
MONTPELIER     CLOUDY    44  30  57 NE3       30.04R
BURLINGTON     MOCLDY    43  29  57 N6        30.04R
$$

MAZ007-012-024-CTZ003-RIZ002-NYZ038-NYZ072-010000-
SOUTHERN NEW ENGLAND AND NY

CITY           SKY/WX    TMP DP  RH WIND       PRES   REMARKS
BOSTON         CLOUDY    50  37  61 NE14      30.02R
WORCESTER      CLOUDY    45  36  70 E9        29.98R
NANTUCKET      CLOUDY    53  44  71 NE17      29.95R
PROVIDENCE     CLOUDY    50  38  63 NE13      29.98R
HARTFORD       LGT RAIN  51  39  63 E8        29.95R
ALBANY         MOCLDY    49  34  56 E3        29.97R
NEW YORK CITY  CLOUDY    55  42  61 NE14      29.91R
$$

ANZ081-ANZ082-ANZ150-NHZ014-MEZ023>029-010000-
COASTAL MARINE OBSERVATIONS

STATION/POSITION TIME  TEMP    WIND        PRES    WAVE
                       AIR SEA DIR/SP/G            HT/PER
                 (UTC) (F)     (DEG/KT/KT) (MB)    (FT/S)
MOUNT DESERT ROC 2300   49                 1016.9R
MATINICUS ROCK   2200           20/  7/  9 1016.2R
PORTLAND WX BUOY 2250   49 53   80/  6/  8 1016.7R   1/ 7
WELLS            2200   49 51   80/  2/  3 1015.9S
ISLE OF SHOALS   2200   49      70/ 12/ 14 1015.7F
JEFFREYS LEDGE   2221      54                N/A     2/ 4
CASHES LEDGE BUO 2250   49 55   40/  8/ 12 1016.6R   2/ 8
$$

.............KEY..............
   WCI - WIND CHILL
   TC  - TEMPERATURE IN CELSIUS
   VSB - VISIBILITY IN MILES
   HX  - HEAT INDEX
   FAIR- INDICATES FEW OR NO CLOUDS BELOW 12,000 FT, WITH NO
         SIGNIFICANT WEATHER AND/OR OBSTRUCTIONS TO VISIBILITY.





USA.gov is the U.S. government's official web portal to all federal, state and local government web resources and services.